contact:dominique.lefevre@mio.osupytheas.fr, maurice.libes@osupytheas.fr, didier.mallarino@osupytheas.fr
Project:EMSO http://www.emso-fr.org/EMSO-France
Depth: 2436.0 m
Title:EMSO Ligure Ouest : Data MII capteur AQUADOPP
Date,Latitude,Longitude,X_East,Y_North,Z_Up,Amplitude_X,Amplitude_Y,Amplitude_Z,Batterie,SoundSpeed,Heading,Pitch,Roll,Pressure,TIS,Speed,Direction
, degrees North, degrees East, m.s-1, m.s-1,m.s-1, 1, 1, 1, Volt, m.s-1, degree, degree, degree, dbar, degree_C, m.s-1, degree
2023-07-05T00:04:03,42.805,6.029,0.065,-0.016,-0.03,103.0,103.0,102.0,13.3,1505.2,325.4,-0.7,1.8,2471.518,13.28,0.066,103.8
2023-07-05T00:07:03,42.805,6.029,0.03,-0.024,-0.02,103.0,102.0,102.0,13.4,1505.2,343.9,-0.7,1.8,2471.484,13.28,0.038,128.7
2023-07-05T00:10:03,42.805,6.029,0.04,-0.008,-0.006,103.0,102.0,101.0,13.3,1505.2,334.9,-0.8,1.8,2471.508,13.28,0.04,101.3
2023-07-05T00:13:03,42.805,6.029,0.03,-0.024,-0.027,102.0,104.0,102.0,13.4,1505.2,347.8,-0.8,1.8,2471.5,13.28,0.038,128.7
2023-07-05T00:16:03,42.805,6.029,0.062,-0.019,-0.015,103.0,102.0,102.0,13.4,1505.2,324.6,-0.8,1.8,2471.495,13.29,0.064,107.0
2023-07-05T00:19:03,42.805,6.029,0.038,-0.004,0.002,104.0,102.0,101.0,13.3,1505.2,325.7,-0.8,1.8,2471.47,13.29,0.038,96.0
2023-07-05T00:22:03,42.805,6.029,0.037,-0.01,-0.006,103.0,102.0,102.0,13.4,1505.2,330.2,-0.8,1.9,2471.461,13.29,0.038,105.1
2023-07-05T00:25:03,42.805,6.029,0.032,-0.008,-0.006,102.0,102.0,102.0,13.4,1505.2,331.4,-0.8,1.8,2471.461,13.29,0.032,104.0
2023-07-05T00:28:03,42.805,6.029,0.042,-0.02,0.006,102.0,101.0,101.0,13.3,1505.2,339.1,-0.8,1.8,2471.448,13.29,0.046,115.5
2023-07-05T00:31:03,42.805,6.029,0.043,-0.014,-0.027,102.0,104.0,101.0,13.4,1505.2,322.9,-0.8,1.8,2471.414,13.29,0.045,108.0
2023-07-05T00:34:03,42.805,6.029,0.06,-0.025,0.012,102.0,104.0,102.0,13.4,1505.2,327.9,-0.8,1.8,2471.469,13.29,0.064,112.6
2023-07-05T00:37:03,42.805,6.029,0.045,-0.017,-0.015,100.0,102.0,103.0,13.4,1505.2,329.0,-0.8,1.8,2471.451,13.29,0.048,110.7
2023-07-05T00:40:03,42.805,6.029,0.018,-0.034,-0.025,101.0,103.0,102.0,13.4,1505.2,332.9,-0.8,1.8,2471.435,13.29,0.038,152.1
2023-07-05T00:43:03,42.805,6.029,0.038,-0.041,-0.015,103.0,102.0,102.0,13.3,1505.2,330.2,-0.8,1.8,2471.41,13.29,0.055,137.2
2023-07-05T00:46:03,42.805,6.029,0.043,-0.043,-0.026,104.0,102.0,102.0,13.4,1505.2,344.7,-0.8,1.8,2471.417,13.29,0.06,135.0
2023-07-05T00:49:03,42.805,6.029,0.043,-0.023,0.0,103.0,103.0,101.0,13.4,1505.2,351.4,-0.8,1.8,2471.425,13.29,0.048,118.1
2023-07-05T00:52:03,42.805,6.029,0.063,-0.009,0.02,101.0,102.0,103.0,13.3,1505.2,334.4,-0.8,1.8,2471.442,13.29,0.063,98.1
2023-07-05T00:55:03,42.805,6.029,0.044,-0.008,-0.025,103.0,103.0,101.0,13.4,1505.2,333.4,-0.8,1.8,2471.421,13.29,0.044,100.3
2023-07-05T00:58:03,42.805,6.029,0.051,-0.006,0.005,103.0,104.0,101.0,13.4,1505.2,344.2,-0.8,1.8,2471.421,13.29,0.051,96.7
2023-07-05T01:04:03,42.805,6.029,0.036,-0.017,-0.051,104.0,103.0,102.0,13.3,1505.2,334.4,-0.8,1.9,2471.43,13.28,0.039,115.3
2023-07-05T01:07:03,42.805,6.029,0.03,-0.025,-0.03,103.0,103.0,101.0,13.3,1505.2,350.7,-0.7,1.8,2471.479,13.28,0.039,129.8
2023-07-05T01:10:03,42.805,6.029,0.042,-0.031,-0.026,103.0,102.0,102.0,13.4,1505.2,349.3,-0.8,1.8,2471.429,13.28,0.052,126.4
2023-07-05T01:13:03,42.805,6.029,0.063,-0.017,-0.036,102.0,103.0,102.0,13.4,1505.2,323.8,-0.7,1.8,2471.43,13.28,0.065,105.1
2023-07-05T01:16:03,42.805,6.029,0.039,-0.015,0.009,103.0,101.0,101.0,13.4,1505.2,336.2,-0.8,1.8,2471.433,13.29,0.041,111.0
2023-07-05T01:19:03,42.805,6.029,0.077,-0.016,-0.031,102.0,102.0,102.0,13.3,1505.2,327.3,-0.8,1.8,2471.414,13.29,0.078,101.7
2023-07-05T01:22:02,42.805,6.029,0.066,-0.025,-0.009,101.0,104.0,101.0,13.3,1505.2,344.0,-0.8,1.8,2471.382,13.29,0.07,110.7
2023-07-05T01:25:03,42.805,6.029,0.035,-0.025,0.017,102.0,102.0,101.0,13.4,1505.2,351.7,-0.8,1.8,2471.396,13.29,0.043,125.5
2023-07-05T01:28:03,42.805,6.029,0.038,-0.007,-0.026,103.0,102.0,101.0,13.4,1505.2,344.8,-0.8,1.8,2471.383,13.29,0.038,100.4
2023-07-05T01:31:03,42.805,6.029,0.055,0.001,0.017,102.0,102.0,101.0,13.3,1505.2,334.2,-0.7,1.8,2471.371,13.29,0.055,89.0
2023-07-05T01:34:03,42.805,6.029,0.047,-0.023,-0.005,102.0,103.0,101.0,13.4,1505.2,333.4,-0.8,1.8,2471.343,13.29,0.052,116.1
2023-07-05T01:37:03,42.805,6.029,0.033,-0.022,-0.011,102.0,104.0,102.0,13.4,1505.2,351.8,-0.8,1.8,2471.415,13.29,0.039,123.7
2023-07-05T01:40:03,42.805,6.029,0.052,-0.006,-0.026,103.0,102.0,101.0,13.4,1505.2,337.9,-0.7,1.8,2471.363,13.29,0.052,96.6
2023-07-05T01:43:03,42.805,6.029,0.051,-0.025,-0.006,102.0,103.0,102.0,13.3,1505.2,343.7,-0.7,1.8,2471.409,13.29,0.056,116.1
2023-07-05T01:46:03,42.805,6.029,0.049,-0.014,0.029,102.0,102.0,102.0,13.4,1505.2,335.7,-0.8,1.8,2471.36,13.29,0.05,105.9
2023-07-05T01:49:03,42.805,6.029,0.058,-0.012,0.016,103.0,103.0,102.0,13.3,1505.2,343.7,-0.8,1.8,2471.406,13.29,0.059,101.7
2023-07-05T01:52:03,42.805,6.029,0.021,0.009,-0.019,102.0,103.0,100.0,13.4,1505.2,333.0,-0.8,1.8,2471.362,13.29,0.022,66.8
2023-07-05T01:55:03,42.805,6.029,0.037,-0.042,-0.017,102.0,104.0,100.0,13.4,1505.2,350.9,-0.8,1.8,2471.356,13.29,0.055,138.6
2023-07-05T01:58:03,42.805,6.029,0.051,-0.033,-0.017,103.0,102.0,101.0,13.4,1505.2,324.5,-0.8,1.8,2471.363,13.29,0.06,122.9
2023-07-05T02:04:03,42.805,6.029,0.04,-0.045,-0.06,103.0,102.0,101.0,13.4,1505.2,340.3,-0.8,1.8,2471.406,13.28,0.06,138.4
2023-07-05T02:07:03,42.805,6.029,0.057,0.005,-0.017,103.0,101.0,101.0,13.4,1505.2,323.6,-0.8,1.8,2471.459,13.28,0.057,85.0
2023-07-05T02:10:03,42.805,6.029,0.026,-0.033,-0.035,102.0,103.0,101.0,13.4,1505.2,349.3,-0.8,1.8,2471.382,13.28,0.042,141.8
2023-07-05T02:13:03,42.805,6.029,0.051,-0.051,-0.047,102.0,102.0,101.0,13.4,1505.2,344.4,-0.8,1.8,2471.39,13.28,0.072,135.0
2023-07-05T02:16:03,42.805,6.029,0.034,-0.01,-0.02,101.0,102.0,101.0,13.4,1505.2,322.1,-0.8,1.8,2471.342,13.29,0.035,106.4
2023-07-05T02:19:03,42.805,6.029,0.071,-0.035,-0.001,103.0,102.0,100.0,13.4,1505.2,341.9,-0.8,1.8,2471.379,13.29,0.079,116.2
2023-07-05T02:22:03,42.805,6.029,0.034,-0.012,-0.007,104.0,100.0,102.0,13.4,1505.2,336.5,-0.8,1.8,2471.35,13.29,0.036,109.4
2023-07-05T02:25:03,42.805,6.029,0.057,-0.014,-0.019,102.0,102.0,101.0,13.4,1505.2,322.5,-0.8,1.8,2471.358,13.29,0.058,103.8
2023-07-05T02:28:03,42.805,6.029,0.064,0.004,-0.009,102.0,102.0,101.0,13.4,1505.2,323.1,-0.8,1.8,2471.35,13.29,0.064,86.4
2023-07-05T02:31:03,42.805,6.029,0.064,-0.02,-0.04,101.0,102.0,101.0,13.4,1505.2,327.6,-0.7,1.8,2471.359,13.29,0.067,107.4
2023-07-05T02:34:03,42.805,6.029,0.04,-0.039,-0.041,102.0,101.0,101.0,13.4,1505.2,344.0,-0.7,1.8,2471.326,13.29,0.055,134.3
2023-07-05T02:37:03,42.805,6.029,0.077,-0.035,0.006,102.0,101.0,101.0,13.4,1505.2,345.0,-0.8,1.8,2471.353,13.29,0.084,114.4
2023-07-05T02:40:03,42.805,6.029,0.067,-0.025,-0.046,102.0,102.0,101.0,13.3,1505.2,322.0,-0.8,1.8,2471.356,13.29,0.071,110.5
2023-07-05T02:43:03,42.805,6.029,0.047,-0.021,-0.01,102.0,102.0,101.0,13.4,1505.2,335.6,-0.8,1.8,2471.349,13.29,0.051,114.1
2023-07-05T02:46:03,42.805,6.029,0.058,-0.041,-0.003,102.0,101.0,101.0,13.4,1505.2,337.4,-0.7,1.8,2471.335,13.29,0.071,125.3
2023-07-05T02:49:03,42.805,6.029,0.056,-0.034,-0.012,101.0,102.0,101.0,13.3,1505.2,347.7,-0.8,1.8,2471.352,13.29,0.065,121.3
2023-07-05T02:52:03,42.805,6.029,0.072,0.0,-0.01,102.0,102.0,101.0,13.3,1505.2,325.3,-0.7,1.8,2471.362,13.29,0.071,90.0
2023-07-05T02:55:03,42.805,6.029,0.056,0.008,0.024,101.0,102.0,101.0,13.4,1505.2,323.1,-0.7,1.8,2471.367,13.29,0.056,81.9
2023-07-05T02:58:03,42.805,6.029,0.056,-0.043,-0.029,101.0,102.0,101.0,13.4,1505.2,329.8,-0.8,1.8,2471.329,13.29,0.07,127.5
2023-07-05T03:04:03,42.805,6.029,0.06,-0.025,-0.018,101.0,101.0,101.0,13.4,1505.2,329.0,-0.8,1.8,2471.366,13.28,0.064,112.6
2023-07-05T03:07:03,42.805,6.029,0.026,-0.02,-0.062,102.0,102.0,101.0,13.3,1505.2,333.4,-0.8,1.8,2471.363,13.28,0.032,127.6
2023-07-05T03:10:03,42.805,6.029,0.056,-0.014,0.027,103.0,105.0,100.0,13.3,1505.2,331.2,-0.7,1.8,2471.346,13.28,0.057,104.0
2023-07-05T03:13:03,42.805,6.029,0.048,-0.019,0.005,102.0,102.0,101.0,13.4,1505.2,340.8,-0.8,1.8,2471.324,13.28,0.051,111.6
2023-07-05T03:16:03,42.805,6.029,0.045,-0.02,-0.004,102.0,102.0,101.0,13.4,1505.2,338.7,-0.8,1.8,2471.357,13.28,0.049,114.0
2023-07-05T03:19:03,42.805,6.029,0.059,-0.001,0.008,101.0,101.0,101.0,13.4,1505.2,325.0,-0.8,1.8,2471.304,13.29,0.059,91.0
2023-07-05T03:22:03,42.805,6.029,0.06,-0.015,-0.013,101.0,102.0,102.0,13.4,1505.2,329.5,-0.8,1.9,2471.376,13.29,0.061,104.0
2023-07-05T03:25:03,42.805,6.029,0.05,-0.02,-0.019,102.0,102.0,101.0,13.4,1505.2,348.6,-0.7,1.8,2471.33,13.29,0.053,111.8
2023-07-05T03:28:03,42.805,6.029,0.048,0.004,0.01,101.0,102.0,101.0,13.3,1505.2,322.7,-0.7,1.8,2471.33,13.29,0.048,85.2
2023-07-05T03:31:03,42.805,6.029,0.057,-0.027,-0.04,102.0,102.0,101.0,13.4,1505.2,329.3,-0.7,1.8,2471.356,13.29,0.063,115.3
2023-07-05T03:34:03,42.805,6.029,0.032,-0.065,-0.044,102.0,104.0,101.0,13.4,1505.2,353.0,-0.8,1.8,2471.335,13.29,0.072,153.8
2023-07-05T03:37:03,42.805,6.029,0.053,-0.033,-0.003,102.0,102.0,101.0,13.4,1505.2,340.0,-0.8,1.8,2471.309,13.29,0.062,121.9
2023-07-05T03:40:03,42.805,6.029,0.081,-0.034,-0.002,101.0,102.0,101.0,13.3,1505.2,342.3,-0.7,1.8,2471.318,13.29,0.087,112.8
2023-07-05T03:43:03,42.805,6.029,0.06,-0.009,-0.005,102.0,101.0,101.0,13.3,1505.2,322.3,-0.8,1.8,2471.297,13.29,0.06,98.5
2023-07-05T03:46:03,42.805,6.029,0.051,0.001,0.02,102.0,102.0,101.0,13.3,1505.2,334.5,-0.8,1.8,2471.326,13.29,0.051,88.9
2023-07-05T03:49:03,42.805,6.029,0.061,-0.041,-0.037,102.0,102.0,101.0,13.4,1505.2,350.5,-0.8,1.8,2471.338,13.29,0.073,123.9
2023-07-05T03:52:03,42.805,6.029,0.063,-0.005,0.0,101.0,103.0,101.0,13.3,1505.2,322.3,-0.8,1.8,2471.338,13.29,0.063,94.5
2023-07-05T03:55:03,42.805,6.029,0.063,-0.022,-0.044,101.0,101.0,102.0,13.4,1505.2,338.2,-0.8,1.8,2471.331,13.29,0.066,109.2
2023-07-05T03:58:03,42.805,6.029,0.033,-0.015,-0.019,102.0,102.0,102.0,13.4,1505.2,333.9,-0.7,1.8,2471.338,13.29,0.036,114.4
2023-07-05T04:04:03,42.805,6.029,0.061,-0.032,-0.031,102.0,102.0,101.0,13.3,1505.2,326.8,-0.8,1.8,2471.36,13.28,0.068,117.7
2023-07-05T04:07:03,42.805,6.029,0.056,-0.054,-0.049,102.0,102.0,100.0,13.4,1505.2,341.5,-0.8,1.8,2471.39,13.28,0.077,134.0
2023-07-05T04:10:03,42.805,6.029,0.057,-0.033,-0.045,102.0,102.0,101.0,13.4,1505.2,331.6,-0.8,1.9,2471.409,13.28,0.065,120.1
2023-07-05T04:13:03,42.805,6.029,0.031,-0.02,-0.027,102.0,102.0,101.0,13.3,1505.2,345.4,-0.8,1.8,2471.332,13.28,0.036,122.8
2023-07-05T04:16:03,42.805,6.029,0.045,-0.025,-0.024,102.0,101.0,102.0,13.3,1505.2,325.5,-0.8,1.8,2471.334,13.29,0.051,119.1
2023-07-05T04:19:03,42.805,6.029,0.06,-0.022,-0.053,102.0,102.0,101.0,13.4,1505.2,328.5,-0.8,1.8,2471.37,13.29,0.063,110.1
2023-07-05T04:22:03,42.805,6.029,0.047,-0.027,-0.006,103.0,102.0,101.0,13.4,1505.2,345.6,-0.8,1.8,2471.356,13.29,0.054,119.9
2023-07-05T04:25:03,42.805,6.029,0.036,-0.03,-0.01,103.0,101.0,101.0,13.3,1505.2,338.7,-0.8,1.8,2471.344,13.29,0.046,129.8
2023-07-05T04:28:03,42.805,6.029,0.045,0.001,-0.006,103.0,102.0,100.0,13.4,1505.2,331.2,-0.8,1.8,2471.366,13.29,0.045,88.7
2023-07-05T04:31:03,42.805,6.029,0.019,-0.02,-0.006,102.0,101.0,101.0,13.3,1505.2,345.6,-0.7,1.8,2471.341,13.29,0.027,136.5
2023-07-05T04:34:03,42.805,6.029,0.027,-0.018,-0.042,103.0,102.0,102.0,13.3,1505.2,320.7,-0.8,1.8,2471.336,13.29,0.032,123.7
2023-07-05T04:37:03,42.805,6.029,0.045,-0.023,0.003,102.0,102.0,101.0,13.3,1505.2,350.9,-0.7,1.8,2471.35,13.29,0.05,117.1
2023-07-05T04:40:03,42.805,6.029,0.045,-0.019,-0.053,102.0,102.0,101.0,13.3,1505.2,322.2,-0.8,1.8,2471.364,13.29,0.048,112.9
2023-07-05T04:43:03,42.805,6.029,0.044,0.003,0.02,102.0,102.0,101.0,13.4,1505.2,336.8,-0.8,1.8,2471.369,13.29,0.044,86.1
2023-07-05T04:46:03,42.805,6.029,0.04,-0.001,0.013,102.0,102.0,101.0,13.4,1505.2,332.4,-0.8,1.8,2471.37,13.29,0.04,91.4
2023-07-05T04:49:03,42.805,6.029,0.007,-0.022,-0.003,102.0,101.0,101.0,13.3,1505.2,329.7,-0.8,1.8,2471.334,13.29,0.023,162.4
2023-07-05T04:52:03,42.805,6.029,0.038,-0.027,-0.032,103.0,102.0,100.0,13.4,1505.2,335.8,-0.7,1.8,2471.368,13.29,0.046,125.4
2023-07-05T04:55:03,42.805,6.029,0.054,-0.02,0.019,101.0,101.0,101.0,13.4,1505.2,344.8,-0.7,1.8,2471.35,13.29,0.057,110.3
2023-07-05T04:58:03,42.805,6.029,0.058,-0.005,-0.019,102.0,103.0,100.0,13.4,1505.2,332.9,-0.8,1.8,2471.364,13.29,0.058,94.9
2023-07-05T05:04:03,42.805,6.029,0.049,-0.01,-0.051,101.0,102.0,101.0,13.4,1505.2,326.3,-0.8,1.8,2471.393,13.28,0.05,101.5
2023-07-05T05:07:03,42.805,6.029,0.055,-0.055,-0.062,102.0,99.0,101.0,13.3,1505.2,341.9,-0.8,1.8,2471.421,13.28,0.077,135.0
2023-07-05T05:10:03,42.805,6.029,0.016,-0.003,-0.041,100.0,103.0,101.0,13.4,1505.2,333.4,-0.8,1.8,2471.433,13.28,0.016,100.6
2023-07-05T05:13:03,42.805,6.029,0.024,-0.038,-0.018,100.0,102.0,101.0,13.4,1505.2,336.5,-0.7,1.8,2471.409,13.28,0.044,147.7
2023-07-05T05:16:03,42.805,6.029,0.034,-0.015,-0.002,101.0,101.0,101.0,13.4,1505.2,331.3,-0.8,1.8,2471.419,13.29,0.037,113.8
2023-07-05T05:19:03,42.805,6.029,0.03,-0.013,-0.01,101.0,102.0,100.0,13.4,1505.2,340.4,-0.8,1.8,2471.419,13.29,0.032,113.4
2023-07-05T05:22:03,42.805,6.029,0.059,-0.01,-0.016,101.0,102.0,101.0,13.3,1505.2,336.0,-0.7,1.8,2471.403,13.29,0.059,99.6
2023-07-05T05:25:03,42.805,6.029,0.04,-0.007,-0.045,101.0,102.0,101.0,13.4,1505.2,337.7,-0.8,1.8,2471.412,13.29,0.04,99.9
2023-07-05T05:28:03,42.805,6.029,0.05,-0.006,-0.012,99.0,103.0,102.0,13.4,1505.2,328.0,-0.8,1.8,2471.379,13.29,0.05,96.8
2023-07-05T05:31:03,42.805,6.029,0.057,-0.027,-0.039,102.0,102.0,100.0,13.3,1505.2,333.0,-0.8,1.8,2471.386,13.29,0.063,115.3
2023-07-05T05:34:03,42.805,6.029,0.053,-0.025,-0.05,103.0,100.0,101.0,13.4,1505.2,333.4,-0.7,1.8,2471.371,13.29,0.058,115.3
2023-07-05T05:37:03,42.805,6.029,0.057,-0.013,0.014,100.0,103.0,101.0,13.4,1505.2,332.9,-0.8,1.8,2471.385,13.29,0.058,102.8
2023-07-05T05:40:03,42.805,6.029,0.062,-0.043,-0.011,101.0,102.0,101.0,13.4,1505.2,344.6,-0.8,1.8,2471.426,13.29,0.075,124.7
2023-07-05T05:43:03,42.805,6.029,0.054,0.0,0.007,101.0,102.0,101.0,13.3,1505.2,328.1,-0.8,1.8,2471.394,13.29,0.053,90.0
2023-07-05T05:46:03,42.805,6.029,0.057,-0.039,-0.016,102.0,101.0,102.0,13.4,1505.2,353.0,-0.8,1.8,2471.401,13.29,0.069,124.4
2023-07-05T05:49:03,42.805,6.029,0.028,-0.033,-0.017,101.0,102.0,101.0,13.3,1505.2,324.4,-0.8,1.8,2471.406,13.29,0.043,139.7
2023-07-05T05:52:03,42.805,6.029,0.034,-0.005,-0.006,102.0,101.0,100.0,13.4,1505.2,339.5,-0.7,1.8,2471.38,13.29,0.034,98.4
2023-07-05T05:55:03,42.805,6.029,0.037,-0.034,-0.029,103.0,102.0,100.0,13.4,1505.2,325.3,-0.7,1.8,2471.415,13.29,0.05,132.6
2023-07-05T05:58:03,42.805,6.029,0.046,-0.055,-0.038,100.0,103.0,100.0,13.4,1505.2,339.9,-0.8,1.8,2471.402,13.29,0.071,140.1
2023-07-05T06:04:03,42.805,6.029,0.05,-0.003,-0.038,102.0,102.0,101.0,13.3,1505.2,329.4,-0.8,1.8,2471.441,13.28,0.05,93.4
2023-07-05T06:07:03,42.805,6.029,0.055,-0.021,-0.029,102.0,101.0,101.0,13.3,1505.2,335.7,-0.8,1.8,2471.457,13.28,0.058,110.9
2023-07-05T06:10:03,42.805,6.029,0.055,-0.021,0.002,100.0,101.0,101.0,13.4,1505.2,344.0,-0.8,1.8,2471.442,13.28,0.058,110.9
2023-07-05T06:13:03,42.805,6.029,0.066,-0.003,-0.034,101.0,101.0,102.0,13.3,1505.2,326.3,-0.8,1.8,2471.415,13.28,0.066,92.6
2023-07-05T06:16:03,42.805,6.029,0.059,-0.043,-0.029,102.0,102.0,101.0,13.4,1505.2,340.3,-0.7,1.8,2471.432,13.28,0.073,126.1
2023-07-05T06:19:03,42.805,6.029,0.059,-0.006,-0.034,101.0,103.0,102.0,13.3,1505.2,321.7,-0.8,1.8,2471.476,13.29,0.059,95.8
2023-07-05T06:22:03,42.805,6.029,0.063,-0.018,-0.011,102.0,102.0,101.0,13.4,1505.2,330.8,-0.8,1.8,2471.446,13.29,0.065,105.9
2023-07-05T06:25:03,42.805,6.029,0.032,-0.03,-0.009,101.0,101.0,101.0,13.4,1505.2,350.1,-0.8,1.8,2471.462,13.29,0.043,133.1
2023-07-05T06:28:03,42.805,6.029,0.059,-0.032,-0.021,102.0,101.0,102.0,13.4,1505.2,331.7,-0.8,1.8,2471.45,13.29,0.067,118.5
2023-07-05T06:31:03,42.805,6.029,0.061,-0.011,-0.009,101.0,102.0,101.0,13.3,1505.2,331.3,-0.7,1.8,2471.449,13.29,0.061,100.2
2023-07-05T06:34:03,42.805,6.029,0.061,-0.015,-0.016,101.0,104.0,101.0,13.4,1505.2,325.7,-0.7,1.8,2471.459,13.29,0.062,103.8
2023-07-05T06:37:03,42.805,6.029,0.051,-0.024,-0.035,101.0,101.0,101.0,13.4,1505.2,342.2,-0.8,1.8,2471.456,13.29,0.056,115.2
2023-07-05T06:40:03,42.805,6.029,0.063,-0.052,-0.05,102.0,103.0,101.0,13.4,1505.2,347.1,-0.8,1.8,2471.445,13.29,0.081,129.5
2023-07-05T06:43:03,42.805,6.029,0.061,-0.004,0.005,102.0,102.0,101.0,13.4,1505.2,326.3,-0.8,1.8,2471.457,13.29,0.061,93.7
2023-07-05T06:46:03,42.805,6.029,0.051,-0.018,0.016,103.0,101.0,101.0,13.3,1505.2,341.9,-0.8,1.8,2471.448,13.29,0.054,109.4
2023-07-05T06:49:03,42.805,6.029,0.049,-0.007,-0.04,102.0,100.0,101.0,13.4,1505.2,319.8,-0.7,1.8,2471.419,13.29,0.049,98.1
2023-07-05T06:52:03,42.805,6.029,0.057,0.012,-0.013,101.0,101.0,101.0,13.3,1505.2,332.4,-0.8,1.8,2471.467,13.29,0.058,78.1
2023-07-05T06:55:03,42.805,6.029,0.054,-0.057,-0.019,100.0,102.0,101.0,13.3,1505.2,352.1,-0.8,1.8,2471.446,13.29,0.078,136.5
2023-07-05T06:58:03,42.805,6.029,0.073,-0.018,-0.008,101.0,101.0,101.0,13.4,1505.2,321.4,-0.7,1.9,2471.435,13.29,0.075,103.8
2023-07-05T07:04:03,42.805,6.029,0.034,-0.009,0.005,101.0,102.0,101.0,13.4,1505.2,337.4,-0.8,1.8,2471.471,13.28,0.035,104.8
2023-07-05T07:07:03,42.805,6.029,0.064,-0.013,0.0,102.0,102.0,101.0,13.4,1505.2,329.2,-0.8,1.8,2471.499,13.28,0.065,101.5
2023-07-05T07:10:03,42.805,6.029,0.024,-0.048,-0.029,102.0,102.0,101.0,13.4,1505.2,348.6,-0.8,1.9,2471.501,13.28,0.053,153.4
2023-07-05T07:13:03,42.805,6.029,0.069,-0.031,-0.029,102.0,101.0,101.0,13.3,1505.2,341.5,-0.8,1.9,2471.476,13.28,0.075,114.2
2023-07-05T07:16:03,42.805,6.029,0.037,-0.018,0.007,102.0,101.0,101.0,13.3,1505.2,339.5,-0.8,1.9,2471.525,13.29,0.041,115.9
2023-07-05T07:19:03,42.805,6.029,0.026,-0.012,-0.042,101.0,102.0,102.0,13.4,1505.2,349.1,-0.8,1.8,2471.459,13.28,0.028,114.8
2023-07-05T07:22:03,42.805,6.029,0.044,-0.027,-0.042,102.0,101.0,102.0,13.4,1505.2,326.0,-0.8,1.8,2471.473,13.29,0.051,121.5
2023-07-05T07:25:03,42.805,6.029,0.057,-0.025,-0.032,102.0,101.0,102.0,13.4,1505.2,330.3,-0.8,1.8,2471.455,13.29,0.062,113.7
2023-07-05T07:28:03,42.805,6.029,0.016,0.007,-0.025,102.0,102.0,102.0,13.4,1505.2,342.8,-0.8,1.8,2471.476,13.29,0.017,66.4
2023-07-05T07:31:03,42.805,6.029,0.038,-0.022,-0.044,102.0,100.0,101.0,13.3,1505.2,328.8,-0.7,1.8,2471.464,13.29,0.043,120.1
2023-07-05T07:34:03,42.805,6.029,0.044,0.002,-0.017,102.0,101.0,100.0,13.3,1505.2,335.0,-0.7,1.8,2471.515,13.29,0.044,87.4
2023-07-05T07:37:03,42.805,6.029,0.041,-0.005,-0.022,102.0,101.0,101.0,13.4,1505.2,349.9,-0.7,1.8,2471.474,13.29,0.041,97.0
2023-07-05T07:40:03,42.805,6.029,0.085,-0.037,-0.029,101.0,102.0,101.0,13.4,1505.2,334.8,-0.7,1.8,2471.444,13.29,0.092,113.5
2023-07-05T07:43:03,42.805,6.029,0.033,-0.019,-0.031,101.0,101.0,101.0,13.4,1505.2,322.4,-0.8,1.8,2471.476,13.29,0.038,119.9
2023-07-05T07:46:03,42.805,6.029,0.077,0.0,-0.004,101.0,102.0,101.0,13.4,1505.2,323.5,-0.8,1.8,2471.484,13.29,0.076,90.0
2023-07-05T07:49:03,42.805,6.029,0.054,-0.003,-0.002,102.0,101.0,101.0,13.4,1505.2,337.2,-0.7,1.8,2471.46,13.29,0.054,93.2
2023-07-05T07:52:03,42.805,6.029,0.027,-0.032,-0.027,100.0,101.0,101.0,13.4,1505.2,330.3,-0.8,1.8,2471.472,13.29,0.041,139.8
2023-07-05T07:55:03,42.805,6.029,0.045,-0.013,-0.005,101.0,101.0,101.0,13.4,1505.2,331.3,-0.8,1.8,2471.497,13.29,0.046,106.1
2023-07-05T07:58:03,42.805,6.029,0.043,-0.003,0.023,101.0,102.0,101.0,13.3,1505.2,332.1,-0.8,1.8,2471.466,13.29,0.043,94.0
2023-07-05T08:04:03,42.805,6.029,0.033,-0.039,-0.034,102.0,102.0,101.0,13.4,1505.2,339.8,-0.8,1.8,2471.537,13.28,0.051,139.8
2023-07-05T08:07:03,42.805,6.029,0.053,-0.005,-0.019,102.0,101.0,102.0,13.3,1505.2,328.3,-0.8,1.9,2471.524,13.28,0.053,95.4
2023-07-05T08:10:03,42.805,6.029,0.042,-0.04,-0.021,102.0,102.0,101.0,13.4,1505.2,350.5,-0.8,1.8,2471.542,13.28,0.057,133.6
2023-07-05T08:13:03,42.805,6.029,0.053,-0.017,-0.013,102.0,103.0,101.0,13.4,1505.2,343.6,-0.7,1.8,2471.498,13.28,0.055,107.8
2023-07-05T08:16:03,42.805,6.029,0.044,-0.02,-0.012,101.0,102.0,101.0,13.4,1505.2,329.3,-0.8,1.8,2471.528,13.28,0.048,114.4
2023-07-05T08:19:03,42.805,6.029,0.034,-0.014,-0.038,101.0,102.0,101.0,13.4,1505.2,338.0,-0.8,1.8,2471.496,13.29,0.036,112.4
2023-07-05T08:22:03,42.805,6.029,0.027,-0.023,-0.037,102.0,102.0,100.0,13.4,1505.2,331.0,-0.8,1.8,2471.479,13.29,0.035,130.4
2023-07-05T08:25:03,42.805,6.029,0.026,-0.032,-0.059,100.0,100.0,102.0,13.3,1505.2,341.5,-0.8,1.8,2471.478,13.29,0.041,140.9
2023-07-05T08:28:03,42.805,6.029,0.032,-0.03,-0.038,102.0,102.0,101.0,13.4,1505.2,343.4,-0.8,1.8,2471.468,13.29,0.043,133.1
2023-07-05T08:31:03,42.805,6.029,0.038,0.008,0.001,102.0,101.0,101.0,13.4,1505.2,328.7,-0.7,1.8,2471.491,13.29,0.038,78.1
2023-07-05T08:34:03,42.805,6.029,0.037,-0.015,-0.039,102.0,101.0,101.0,13.3,1505.2,324.0,-0.8,1.8,2471.437,13.29,0.039,112.1
2023-07-05T08:37:03,42.805,6.029,0.044,-0.021,-0.02,102.0,101.0,101.0,13.4,1505.2,340.7,-0.8,1.8,2471.454,13.29,0.048,115.5
2023-07-05T08:40:03,42.805,6.029,0.021,-0.011,-0.018,102.0,101.0,101.0,13.4,1505.2,348.2,-0.8,1.8,2471.458,13.29,0.023,117.6
2023-07-05T08:43:03,42.805,6.029,0.037,-0.018,-0.008,101.0,101.0,101.0,13.3,1505.2,351.7,-0.7,1.8,2471.476,13.29,0.041,115.9
2023-07-05T08:46:03,42.805,6.029,0.043,-0.032,0.001,100.0,102.0,100.0,13.4,1505.2,328.2,-0.8,1.8,2471.487,13.29,0.053,126.7
2023-07-05T08:49:03,42.805,6.029,0.048,-0.033,-0.026,102.0,102.0,101.0,13.4,1505.2,342.3,-0.8,1.8,2471.448,13.29,0.058,124.5
2023-07-05T08:52:03,42.805,6.029,0.022,-0.045,-0.06,101.0,102.0,101.0,13.3,1505.2,349.1,-0.7,1.8,2471.474,13.29,0.05,153.9
2023-07-05T08:55:03,42.805,6.029,0.049,-0.011,-0.011,102.0,101.0,101.0,13.4,1505.2,324.7,-0.7,1.8,2471.471,13.29,0.05,102.7
2023-07-05T08:58:03,42.805,6.029,0.064,-0.031,-0.007,102.0,102.0,101.0,13.4,1505.2,341.5,-0.8,1.8,2471.471,13.29,0.071,115.8
2023-07-05T09:04:03,42.805,6.029,0.047,-0.021,-0.022,102.0,102.0,101.0,13.3,1505.2,339.4,-0.8,1.9,2471.489,13.28,0.051,114.1
2023-07-05T09:07:03,42.805,6.029,0.062,-0.02,-0.014,102.0,101.0,100.0,13.4,1505.2,335.6,-0.7,1.8,2471.452,13.28,0.065,107.9
2023-07-05T09:10:03,42.805,6.029,0.031,-0.009,-0.013,101.0,102.0,101.0,13.4,1505.2,337.8,-0.8,1.8,2471.515,13.28,0.032,106.2
2023-07-05T09:13:03,42.805,6.029,0.046,-0.029,0.013,103.0,100.0,100.0,13.3,1505.2,344.6,-0.8,1.8,2471.465,13.28,0.054,122.2
2023-07-05T09:16:03,42.805,6.029,0.058,-0.022,-0.013,101.0,101.0,101.0,13.4,1505.2,338.2,-0.8,1.8,2471.502,13.28,0.062,110.8
2023-07-05T09:19:03,42.805,6.029,0.036,-0.039,-0.044,102.0,103.0,101.0,13.3,1505.2,332.9,-0.8,1.8,2471.471,13.29,0.053,137.3
2023-07-05T09:22:03,42.805,6.029,0.022,-0.017,-0.029,101.0,101.0,101.0,13.4,1505.2,329.3,-0.7,1.8,2471.454,13.29,0.027,127.7
2023-07-05T09:25:03,42.805,6.029,0.062,-0.007,0.018,102.0,103.0,101.0,13.4,1505.2,338.9,-0.8,1.8,2471.468,13.29,0.062,96.4
2023-07-05T09:28:03,42.805,6.029,0.064,-0.047,-0.023,100.0,102.0,101.0,13.3,1505.2,335.6,-0.8,1.8,2471.439,13.29,0.079,126.3
2023-07-05T09:31:03,42.805,6.029,0.068,-0.048,-0.046,100.0,101.0,102.0,13.4,1505.2,335.7,-0.8,1.8,2471.462,13.29,0.083,125.2
2023-07-05T09:34:03,42.805,6.029,0.055,-0.057,-0.039,101.0,101.0,101.0,13.4,1505.2,348.8,-0.7,1.8,2471.454,13.29,0.079,136.0
2023-07-05T09:37:03,42.805,6.029,0.061,0.003,0.033,100.0,101.0,101.0,13.3,1505.2,335.2,-0.8,1.8,2471.43,13.29,0.061,87.2
2023-07-05T09:40:03,42.805,6.029,0.059,-0.027,-0.007,102.0,100.0,102.0,13.4,1505.2,328.8,-0.7,1.8,2471.43,13.29,0.064,114.6
2023-07-05T09:43:03,42.805,6.029,0.065,-0.002,0.003,102.0,102.0,101.0,13.4,1505.2,342.4,-0.8,1.8,2471.433,13.29,0.065,91.8
2023-07-05T09:46:03,42.805,6.029,0.05,-0.02,0.005,100.0,102.0,102.0,13.3,1505.2,345.1,-0.7,1.8,2471.456,13.29,0.053,111.8
2023-07-05T09:49:03,42.805,6.029,0.027,-0.035,-0.006,102.0,102.0,101.0,13.3,1505.2,352.1,-0.8,1.8,2471.421,13.29,0.044,142.3
2023-07-05T09:52:03,42.805,6.029,0.025,-0.035,-0.039,101.0,102.0,101.0,13.4,1505.2,346.2,-0.8,1.8,2471.437,13.29,0.043,144.5
2023-07-05T09:55:03,42.805,6.029,0.021,-0.014,-0.017,103.0,101.0,101.0,13.4,1505.2,332.5,-0.8,1.8,2471.44,13.29,0.025,123.7